Probability
33 33 30 25 19 15 15 16 16 14 13 12 10 8 8 7 9 12 11 7 4 2 4 7 11 13 14 16 19 17 13 9 8 7 5 6 9 9 7 6 6 7 8
33 32 30 25 20 16 15 16 15 14 13 12 12 11 11 10 11 12 11 8 5 3 4 8 10 11 13 16 17 16 12 10 9 6 4 6 8 10 9 7 5 6 7
33 32 29 25 21 17 15 15 15 15 14 14 15 15 15 13 12 11 10 9 7 6 6 9 10 11 12 14 14 13 11 10 9 6 3 5 9 11 11 8 6 7 7
36 35 32 27 22 19 18 18 18 18 17 18 19 18 17 14 11 10 10 10 9 8 8 9 9 9 11 11 10 11 11 9 7 6 4 6 9 11 11 9 9 8 8
44 42 37 32 28 26 25 25 25 23 21 21 20 19 17 13 9 10 11 10 11 10 9 8 7 7 7 6 5 8 9 8 6 6 6 6 8 11 10 10 9 7 6
50 48 43 38 36 34 31 30 31 28 25 24 21 19 17 12 7 7 8 10 12 11 9 8 6 4 4 3 3 4 5 5 5 5 5 4 6 9 10 10 9 8 6
52 50 47 45 43 40 35 34 35 33 30 27 24 21 18 12 5 2 4 7 10 9 8 8 6 4 4 4 2 2 3 2 2 3 3 2 4 8 10 11 11 11 9
52 50 49 49 49 47 43 40 38 35 32 30 26 23 20 14 6 1 2 6 8 7 6 6 5 3 3 4 4 4 5 3 1 2 3 2 3 6 8 9 11 9 7
54 52 50 51 51 52 50 45 38 33 30 27 25 24 21 16 7 1 2 6 8 6 4 3 3 2 2 2 4 7 8 5 2 1 1 1 1 2 3 6 8 6 4
56 55 52 51 49 49 50 46 37 30 26 25 26 24 20 14 7 2 1 4 7 6 4 3 2 1 1 1 4 7 8 7 5 3 2 2 2 2 1 2 5 6 5
57 57 55 51 47 44 45 44 38 30 27 27 26 22 17 13 7 2 1 3 5 6 6 5 4 2 1 0 2 4 5 5 6 6 5 6 7 6 3 2 4 5 6
57 57 56 52 47 43 43 42 38 33 29 26 23 18 14 12 8 3 1 1 3 6 7 7 6 3 1 0 0 1 2 3 5 7 7 8 9 8 6 4 3 3 5
56 56 54 51 47 45 43 42 38 33 28 23 18 15 13 11 8 4 1 0 1 4 6 6 4 2 0 0 0 0 0 2 4 5 6 6 6 6 5 4 3 3 4
55 53 50 47 44 43 40 37 33 27 24 20 15 13 12 10 8 5 3 2 2 3 3 3 1 0 0 0 0 0 0 1 2 3 3 2 2 2 2 2 2 3 3
51 49 45 42 39 35 30 25 20 17 15 13 10 9 9 7 5 4 4 4 3 2 3 2 1 0 0 0 0 0 0 0 1 1 1 0 0 0 0 0 1 1 1
45 42 38 36 32 27 23 16 9 6 5 4 3 4 5 3 1 1 2 2 2 1 2 2 1 0 0 0 0 0 0 0 0 0 0 0 0 0 0 0 0 0 0
35 33 29 27 24 22 20 14 7 3 1 0 0 1 1 1 0 0 0 0 0 0 0 0 0 0 0 0 0 0 0 0 0 0 0 0 0 0 0 0 0 0 0
28 26 24 22 20 21 19 15 10 7 5 2 1 0 0 0 0 0 0 0 0 0 0 0 0 0 0 0 0 0 0 0 0 0 0 0 0 0 0 0 0 0 0
22 21 20 18 17 16 15 12 10 8 7 4 2 1 0 0 0 0 0 0 0 0 0 0 0 0 0 0 0 0 0 0 0 0 0 0 0 0 0 0 0 0 0
15 13 12 12 10 9 9 8 7 6 5 4 3 1 0 0 0 0 0 0 0 0 0 0 0 0 0 0 0 0 0 0 0 0 0 0 0 0 0 0 0 0 0
7 6 6 6 5 5 5 4 4 4 3 3 2 1 0 0 0 0 0 0 0 0 0 0 0 0 0 0 0 0 0 0 0 0 0 0 0 0 0 0 0 0 0
4 4 4 4 4 5 4 4 3 3 3 2 2 1 0 0 0 0 0 0 0 0 0 0 0 0 0 0 0 0 0 0 0 0 0 0 0 0 0 0 0 0 0
3 3 4 4 4 4 4 3 2 2 1 1 1 0 0 0 0 0 0 0 0 0 0 0 0 0 0 0 0 0 0 0 0 0 0 0 0 0 0 0 0 0 0
1 2 3 3 2 2 2 1 1 1 0 0 0 0 0 0 0 0 0 0 0 0 0 0 0 0 0 0 0 0 0 0 0 0 0 0 0 0 0 0 0 0 0
0 1 1 1 0 1 1 0 0 0 0 0 0 0 0 0 0 0 0 0 0 0 0 0 0 0 0 0 0 0 0 0 0 0 0 0 0 0 0 0 0 0 0
0 0 0 0 0 0 0 0 0 0 0 0 0 0 0 0 0 0 0 0 0 0 0 0 0 0 0 0 0 0 0 0 0 0 0 0 0 0 0 0 0 0 0
Wind_Speed
7 6 5 5 5 5 4 4 4 4 4 5 5 5 5 5 5 4 5 6 7 6 6 6 6 6 5 5 5 5 6 5 6 5 3 3 4 5 3 4 4 4 4
7 7 6 5 5 5 4 4 4 4 4 4 4 5 5 4 4 5 6 6 6 7 7 6 6 5 6 5 5 6 5 5 6 6 4 4 5 5 5 5 4 4 3
8 7 7 6 6 5 4 4 4 4 4 4 4 4 4 3 4 5 5 5 6 6 6 6 6 6 6 5 5 5 5 4 4 5 4 3 3 4 4 4 4 3 3
8 8 7 6 5 5 4 3 4 4 4 4 3 3 3 2 3 4 4 4 5 5 5 5 5 5 6 5 5 5 4 4 4 5 4 4 3 3 3 4 3 3 3
8 7 7 6 5 4 4 3 3 4 3 3 3 3 3 2 2 3 4 4 4 4 4 4 4 2 3 3 4 4 4 5 5 5 4 4 4 4 4 4 4 3 3
8 7 6 6 5 4 4 3 3 3 3 2 3 3 2 1 2 3 4 4 3 4 4 3 3 2 2 3 4 4 5 6 6 5 5 5 5 4 3 4 4 4 3
8 7 6 6 5 4 4 3 3 3 3 2 2 2 1 1 1 2 3 4 3 3 3 2 3 1 2 3 3 4 4 3 5 5 5 5 4 4 4 5 5 5 4
8 7 6 5 5 4 3 2 2 2 2 2 2 1 1 1 1 1 4 4 2 2 2 2 2 2 2 3 3 3 2 1 2 3 3 3 3 2 4 4 4 3 2
7 6 6 5 5 5 4 3 2 2 2 2 2 1 1 1 1 1 5 3 2 2 1 1 2 2 2 3 3 3 3 1 1 1 1 1 0 1 2 3 4 4 4
6 5 5 5 5 4 4 3 3 3 3 3 2 2 1 0 2 1 4 3 2 2 1 1 1 1 1 2 4 3 3 2 1 1 1 2 3 4 4 5 4 4 3
6 5 4 4 3 3 3 3 3 3 3 3 3 2 2 0 2 1 2 3 2 2 2 1 1 2 0 2 4 3 2 3 3 3 2 2 2 2 3 3 3 3 3
5 5 4 3 2 2 3 3 3 3 4 3 3 2 2 1 0 2 1 2 5 3 2 1 2 2 1 2 2 1 2 4 3 3 2 2 1 1 1 2 2 2 2
6 5 4 3 2 2 2 3 3 3 3 2 2 2 1 1 2 3 3 2 3 2 1 3 2 1 2 3 2 3 4 3 2 2 2 1 1 0 1 2 2 2 1
6 5 4 3 3 2 1 1 1 1 1 1 2 1 1 1 0 0 1 2 3 3 1 2 4 3 2 0 2 3 2 1 2 2 1 0 1 1 2 2 2 3 3
5 4 4 3 3 2 2 2 1 2 2 1 1 1 1 0 2 3 3 2 2 1 2 2 1 1 1 1 1 1 1 1 1 1 1 1 1 2 1 1 2 2 2
4 4 3 3 3 2 3 4 6 4 5 5 5 4 3 4 3 2 1 2 2 1 3 1 1 1 1 1 1 1 1 0 1 1 1 1 1 1 1 2 2 2 2
3 2 2 2 2 2 2 2 3 3 4 4 3 4 3 3 2 1 1 0 0 1 2 1 1 1 1 1 1 1 1 0 1 1 1 1 1 1 1 2 2 2 2
1 2 1 1 1 1 1 2 2 2 2 2 3 3 2 2 1 1 1 2 2 1 1 1 1 1 1 2 1 1 1 1 1 1 1 2 1 2 2 2 2 2 2
1 1 0 0 1 1 1 1 1 1 1 1 2 3 3 3 3 2 2 1 1 1 0 1 1 1 1 1 1 1 2 2 1 2 1 2 2 2 2 2 2 2 3
2 3 1 1 1 1 2 2 1 1 2 1 1 2 3 3 2 2 2 0 0 1 0 1 1 1 1 1 1 1 2 2 2 2 1 2 2 2 2 3 3 3 4
2 3 3 2 2 1 1 1 1 1 1 1 2 3 3 1 1 1 1 1 1 1 1 1 1 1 1 1 1 2 2 2 2 2 2 2 2 2 3 3 3 4 4
2 2 2 1 2 2 2 2 2 2 2 2 2 3 1 1 1 1 1 1 1 1 1 1 1 1 1 1 2 2 2 2 2 2 2 3 3 3 4 4 4 4 4
2 2 3 3 3 3 2 2 2 2 2 2 1 2 1 1 1 1 1 1 1 1 1 1 2 2 2 2 2 2 3 3 3 3 4 4 3 3 3 4 5 5 4
2 3 3 3 3 2 2 2 2 2 2 1 1 1 1 1 1 2 2 1 1 2 2 2 2 3 3 3 2 2 2 4 5 4 5 5 5 4 4 4 4 5 5
3 3 3 2 2 2 2 2 2 2 2 1 1 1 1 1 1 1 1 2 2 2 2 2 1 2 3 4 4 4 4 4 5 7 6 6 6 6 5 5 5 5 5
3 3 3 2 2 2 2 2 2 2 2 2 2 2 1 2 2 2 2 2 2 2 2 1 2 3 3 3 4 4 3 3 4 6 7 7 7 6 6 6 7 6 7
Wind_Direction
185 189 194 196 200 208 217 226 233 240 239 241 248 254 259 261 258 254 254 245 241 238 238 237 243 249 246 251 249 244 242 241 250 258 251 236 228 234 219 226 223 220 195
178 182 189 195 203 212 210 219 228 235 240 241 247 252 260 265 262 257 258 252 249 245 242 244 247 245 240 247 252 253 250 248 248 254 253 248 241 228 220 224 227 219 210
172 178 183 193 198 209 218 223 228 237 243 246 245 251 261 270 263 258 256 254 252 252 250 248 251 251 249 250 250 252 252 249 248 251 255 253 245 222 211 217 222 220 215
173 178 183 193 199 206 213 217 224 231 235 238 240 250 256 261 267 265 259 255 254 254 253 258 261 257 257 257 251 248 251 254 249 248 246 241 234 215 207 211 215 207 215
175 179 181 184 191 201 207 216 219 225 227 220 223 233 248 251 282 288 270 255 257 261 255 256 259 278 305 282 276 268 259 253 250 248 245 237 229 210 213 213 213 205 219
178 179 175 180 186 193 197 200 202 208 216 214 218 225 243 291 17 334 298 273 264 262 260 261 258 241 230 227 249 257 262 259 261 256 253 249 241 232 220 214 211 208 220
177 178 176 183 186 191 200 196 194 199 198 201 216 222 229 359 6 304 292 280 269 271 275 286 284 289 261 250 223 219 234 243 252 260 259 258 251 235 224 223 218 225 229
176 179 180 187 181 175 184 191 199 203 201 200 203 204 215 83 46 307 291 255 264 266 266 262 273 294 324 317 283 265 265 257 258 255 267 268 265 244 231 232 225 224 214
174 176 177 184 179 177 183 188 193 197 196 201 200 214 229 127 71 306 290 251 233 236 254 281 285 282 34 332 279 269 270 262 109 84 343 288 195 202 225 220 207 210 217
167 170 171 175 181 181 175 184 188 198 200 207 190 212 230 195 105 341 298 266 249 242 218 211 66 357 23 307 268 261 260 271 279 213 192 192 197 184 200 225 225 226 225
153 151 155 161 176 178 167 171 184 199 201 206 188 197 212 280 142 112 316 293 285 269 262 260 90 103 246 283 279 276 289 285 258 246 235 216 202 199 203 212 233 238 237
143 139 137 139 155 158 163 171 186 205 204 200 196 204 192 171 108 137 171 292 312 289 288 305 67 99 229 256 272 320 297 265 243 236 236 223 213 215 205 202 219 246 277
136 131 130 128 128 144 170 179 187 210 234 227 217 212 199 168 140 146 177 221 274 282 341 52 71 181 226 207 211 256 250 243 241 236 235 238 247 204 199 189 180 185 196
138 138 138 134 132 118 128 183 185 188 236 247 260 251 223 184 58 96 203 195 197 210 200 153 180 205 239 281 188 212 237 291 288 270 271 233 193 197 210 196 195 192 190
137 136 136 135 129 126 105 57 31 54 18 302 274 274 288 270 42 6 333 325 308 302 258 212 193 184 203 201 206 208 214 200 236 274 262 222 208 204 210 202 214 209 206
137 140 145 146 145 148 135 118 65 59 63 52 33 16 63 58 97 100 23 357 358 318 260 226 213 240 251 253 235 207 206 228 258 248 242 248 251 230 207 208 217 224 209
136 144 158 157 159 167 164 164 149 122 105 88 66 48 44 68 97 135 169 160 204 237 246 304 306 304 306 305 311 302 293 350 313 275 265 261 260 252 240 224 222 227 224
139 134 185 173 178 182 176 171 175 172 159 127 121 107 104 96 98 125 182 195 157 176 287 321 312 323 317 320 318 310 304 252 238 261 262 263 262 257 253 249 233 236 233
123 104 114 111 148 140 142 147 148 146 140 130 131 124 143 159 152 150 197 225 93 106 36 356 338 327 319 311 307 303 296 287 289 280 273 279 268 264 266 258 242 221 250
113 89 97 145 133 138 148 151 149 156 153 145 132 105 141 165 149 138 172 311 16 67 27 350 338 326 314 305 298 287 273 273 269 264 274 276 273 269 263 258 253 235 236
114 121 162 188 151 149 148 135 138 155 135 120 87 54 349 276 92 82 83 68 348 358 15 351 341 320 311 306 303 290 280 279 279 279 276 269 266 264 264 258 253 251 247
136 137 135 118 114 113 117 121 110 101 101 102 109 117 263 279 68 82 87 77 44 23 10 331 326 336 333 323 307 298 292 292 294 291 285 273 262 256 253 253 254 251 248
139 122 119 113 112 125 153 120 116 118 114 110 102 107 123 59 51 41 36 34 23 11 9 352 339 349 350 335 330 319 309 307 301 294 286 280 273 266 263 259 255 251 250
130 128 122 118 122 131 122 118 115 108 102 96 91 81 74 54 31 26 3 13 7 9 13 6 1 2 354 338 327 322 337 328 311 295 286 284 280 275 271 268 264 259 255
118 115 116 113 111 107 100 97 92 91 88 83 71 51 51 51 45 36 25 31 19 16 13 1 351 352 351 343 339 347 8 337 311 307 290 278 275 275 274 271 269 266 261
109 108 106 102 100 93 86 81 80 77 70 64 54 43 34 41 45 38 23 18 1 2 346 340 349 346 336 329 358 7 354 318 302 296 288 280 277 275 276 272 270 268 265